Regional Weather Roundup
Issued by NWS Grand Forks, ND

Home | Current Version | Previous Version | Text Only | Print | Product List | Glossary On
Versions: 1 2 3 4 5 6 7 8 9 10 11 12 13 14 15 16 17 18 19 20 21 22 23 24 25 26 27 28 29 30 31 32 33 34 35 36 37 38 39 40 41 42 43 44 45 46 47 48 49 50
816
ASUS43 KFGF 110631
RWRFGF
PRAIRIE TO PINES  WEATHER ROUNDUP
NATIONAL WEATHER SERVICE EASTERN NORTH DAKOTA/GRAND FORKS ND
1200 AM CST THU FEB 11 2016

 **SATELLITE DATA USED TO AUGMENT SKY COVER AT AUTOMATED STATIONS**
 *****  WEATHER ACROSS EASTERN NORTH DAKOTA  *****

CITY           SKY/WX    TMP DP  RH WIND       PRES   REMARKS
GRAND FORKS    CLOUDY     2  -4  76 W3        30.31S
6HR MIN TEMP:   2; 6HR MAX TEMP:  10;

GRAND FRKS AFB CLOUDY    -1  -6  82 CALM      30.29F
DEVILS LAKE    NOT AVBL
FARGO          CLOUDY     7  -2  66 N3        30.30F
WAHPETON ARPT  CLOUDY     5   0  78 NW6       30.30S WCI  -6
$$

 ***** WEATHER ACROSS CENTRAL AND WESTERN NORTH DAKOTA  *****

CITY           SKY/WX    TMP DP  RH WIND       PRES   REMARKS
BISMARCK       CLOUDY    17  10  74 S3        30.21R
6HR MIN TEMP:  17; 6HR MAX TEMP:  21;

MINOT          CLOUDY    13   6  74 SE3       30.18S
6HR MIN TEMP:  12; 6HR MAX TEMP:  15;

JAMESTOWN      CLOUDY     5   0  79 S5        30.23F WCI  -4
6HR MIN TEMP:   5; 6HR MAX TEMP:   9; 6HR PCP: TRACE;

MINOT AFB      CLOUDY    10   8  91 S5        30.18S WCI   2
GARRISON         N/A     12   8  84 SE3       30.17S
WILLISTON      CLOUDY    26  21  81 SE7       30.13F WCI  18
6HR MIN TEMP:  26; 6HR MAX TEMP:  28;

DICKINSON      CLOUDY    24  21  88 S7        30.09S WCI  16
6HR MIN TEMP:  23; 6HR MAX TEMP:  30;

HETTINGER      CLOUDY    27  23  85 SE5       30.13S WCI  22
6HR MIN TEMP:  27; 6HR MAX TEMP:  34;

$$

 *****  OTHER AIRPORT OBSERVATIONS IN OUR AREA  *****

CITY           SKY/WX    TMP DP  RH WIND       PRES   REMARKS
WALHALLA         N/A     -2  -4  92 CALM      30.28S
GRAFTON AIRPOR FAIR       0  -4  85 CALM      30.32S
VALLEY CITY AR CLOUDY     1   0  92 CALM      30.26F
CANDO          FAIR      -2  -6  84 SE7       30.25F WCI -16
CAVALIER APRT  FAIR      -2  -4  92 CALM      30.30S
GWINNER        CLOUDY     9   3  78 N6        30.27F WCI  -1
SHEYENNE NWR     N/A      2  -3  78 CALM      29.95S
ROLLA          FAIR      -2  -6  84 SW6       30.19F WCI -14
 ***** THE ABOVE OBSERVATIONS ARE NON NWS ARE NOT QUALITY
       CONTROLLED AND MAY MIS-REPORT RAIN FOR SNOW...
$$

  *****  WEATHER ACROSS NORTHERN MINNESOTA  *****

CITY           SKY/WX    TMP DP  RH WIND       PRES   REMARKS
FLAG ISLAND    CLOUDY    -9 -15  77 CALM      30.24F
WARROAD        CLOUDY   -15 -20  76 SW5       30.26S WCI -27
ROSEAU         CLOUDY   -13 -18  77 SW3       30.27S
HALLOCK        CLOUDY    -6  -9  84 CALM      30.29F
THF RVR FALLS  CLOUDY    -2 N/A N/A CALM      30.28S
6HR MIN TEMP:  -6; 6HR MAX TEMP:   7;

BAUDETTE       CLOUDY   -16 -23  70 CALM      30.24F
6HR MIN TEMP: -22; 6HR MAX TEMP:  -8;

WASKISH        CLOUDY   -17 -20  83 CALM      30.26R
CROOKSTON      PTCLDY    -2  -6  84 CALM      30.31F
STEPHEN NDAWN    N/A      0  -6  78 CALM        N/A
GREENBUSH NDAW   N/A    -11 -15  84 S3          N/A
$$
  *****  WEATHER ACROSS CENTRAL AND WEST MINNESOTA  *****

CITY           SKY/WX    TMP DP  RH WIND       PRES   REMARKS
FOSSTON        CLOUDY   -11 -20  64 CALM      30.26F
BEMIDJI        CLOUDY   -13 -17  82 CALM      30.24S
PARK RAPIDS    CLOUDY    -4 -10  75 W5        30.23R WCI -15
6HR MIN TEMP:  -5; 6HR MAX TEMP:  10;

ELBOW LAKE     FAIR       7   3  81 CALM      30.26F FOG
6HR MIN TEMP:   9; 6HR MAX TEMP:  14;

WADENA         PTCLDY     1  -6  71 CALM      30.25R
DETROIT LAKES  CLOUDY     5   1  85 CALM      30.25F
MOORHEAD       CLOUDY     7  -2  66 NE3       30.30F
FERGUS FALLS   CLEAR      7   1  78 NE3       30.30S
MORRIS MN      CLOUDY     9   3  78 NW3       30.26S
STAPLES        CLOUDY     0  -8  71 CALM      30.26R
$$
  *****  WEATHER ELSEWHERE ACROSS MINNESOTA  *****

CITY           SKY/WX    TMP DP  RH WIND       PRES   REMARKS
DULUTH         PTCLDY    -5 -12  72 N8        30.18R WCI -20
6HR MIN TEMP:  -5; 6HR MAX TEMP:   5;

INTRNTL FALLS  CLOUDY   -21 -26  77 CALM      30.23R
6HR MIN TEMP: -23; 6HR MAX TEMP:  -8;

ELY            CLOUDY   -20 -26  76 CALM      30.19F
CLOQUET        CLOUDY    -6 -13  71 NW8       30.21R WCI -21
WHEATON        CLOUDY     7   3  85 CALM      30.30F
BRAINERD       CLOUDY    -4 -10  75 SW6       30.25R WCI -16
6HR MIN TEMP:  -4; 6HR MAX TEMP:   9;

HIBBING        CLOUDY   -18 -22  82 W5        30.21R WCI -31
6HR MIN TEMP: -19; 6HR MAX TEMP:   2;

ALEXANDRIA     CLOUDY     8  -2  63 N5        30.24R WCI   0
6HR MIN TEMP:   7; 6HR MAX TEMP:  12;

SAINT CLOUD    MOCLDY     5  -3  69 NW5       30.26R WCI  -4
6HR MIN TEMP:   5; 6HR MAX TEMP:  11;

MINNEAPOLIS    CLEAR      8  -4  58 NW6       30.28R WCI  -2
6HR MIN TEMP:   8; 6HR MAX TEMP:  12;

$$

  *****  WEATHER ACROSS SOUTH DAKOTA  *****

CITY           SKY/WX    TMP DP  RH WIND       PRES   REMARKS
SIOUX FALLS    CLOUDY    13   5  70 E6        30.24R WCI   4
6HR MIN TEMP:  13; 6HR MAX TEMP:  16;

BROOKINGS      CLOUDY    11   5  77 E6        30.22R WCI   1
WATERTOWN      CLOUDY    11   4  73 E6        30.21R WCI   1
6HR MIN TEMP:  10; 6HR MAX TEMP:  11; 6HR PCP: TRACE;

HURON          CLOUDY    16  10  77 E6        30.25R WCI   7
6HR MIN TEMP:  16; 6HR MAX TEMP:  20;

SISSETON         N/A      9   4  80 N6        30.27R WCI  -1
ABERDEEN       CLOUDY    13   7  77 NE6       30.26F WCI   4
6HR MIN TEMP:  13; 6HR MAX TEMP:  16; 6HR PCP: TRACE;

MITCHELL       CLOUDY    19  13  77 E6        30.24R WCI  11
PIERRE         CLOUDY    23  20  88 CALM      30.21R
6HR MIN TEMP:  21; 6HR MAX TEMP:  32;

MOBRIDGE       MOCLDY    19  13  77 E8        30.16S WCI   9
RAPID CITY     CLOUDY    29  27  92 SE8       30.13F WCI  21
6HR MIN TEMP:  27; 6HR MAX TEMP:  55;

$$

  *****  SOME WEATHER IN NEARBY STATES *****

CITY           SKY/WX    TMP DP  RH WIND       PRES   REMARKS
GLASGOW MT     CLOUDY    31  26  82 E9        30.08F WCI  23
6HR MIN TEMP:  30; 6HR MAX TEMP:  33;

GREAT FALLS MT CLOUDY    50  25  37 SW20      30.03S
6HR MIN TEMP:  47; 6HR MAX TEMP:  53;

CHEYENNE WY    CLEAR     36  16  44 W8        30.19S
6HR MIN TEMP:  36; 6HR MAX TEMP:  47;

SCOTTSBLUFF NE CLEAR     32  25  75 N6        30.15R
6HR MIN TEMP:  32; 6HR MAX TEMP:  52;

OMAHA NE       PTCLDY    20  15  81 NE8       30.20R WCI  10
6HR MIN TEMP:  20; 6HR MAX TEMP:  31;

DES MOINES IA  CLOUDY    16   8  71 NE8       30.23R WCI   5
6HR MIN TEMP:  16; 6HR MAX TEMP:  19; 6HR PCP: TRACE;

DAVENPORT IA   MOCLDY    10   3  73 N5        30.20S WCI   2
6HR MIN TEMP:   8; 6HR MAX TEMP:  16;

CHICAGO IL     CLOUDY    11   1  64 NW8       30.16F WCI  -1
6HR MIN TEMP:  10; 6HR MAX TEMP:  14;

EAU CLAIRE WI  CLOUDY     4  -6  63 NW5       30.24R WCI  -5
6HR MIN TEMP:   4; 6HR MAX TEMP:   7;

LA CROSSE WI   MOCLDY     7  -3  64 CALM      30.26R
6HR MIN TEMP:   3; 6HR MAX TEMP:   8;

$$

  *****  SOME NATIONAL WEATHER *****

CITY           SKY/WX    TMP DP  RH WIND       PRES   REMARKS
LA GUARDIA NY  CLOUDY    32  15  49 W16G26    29.75R WCI  21
6HR MIN TEMP:  32; 6HR MAX TEMP:  36;

RALEIGH NC     PTCLDY    26   6  42 NW10      30.07R WCI  16
6HR MIN TEMP:  26; 6HR MAX TEMP:  32;

ATLANTA GA     MOCLDY    32  11  41 NW7       30.16F
6HR MIN TEMP:  32; 6HR MAX TEMP:  36;

NEW ORLEANS LA CLEAR     48  34  58 SW13      30.23F
6HR MIN TEMP:  47; 6HR MAX TEMP:  55;

OKLAHOMA CITY  CLEAR     48  30  49 NW3       29.97S
6HR MIN TEMP:  48; 6HR MAX TEMP:  66;

ALBUQUERQUE NM MOCLDY    49  21  33 N5        30.32R
6HR MIN TEMP:  43; 6HR MAX TEMP:  61;

SALT LAKE CITY CLOUDY    30  27  88 CALM      30.45S FOG
6HR MIN TEMP:  29; 6HR MAX TEMP:  31;

LOS ANGELES CA CLEAR     65  42  43 E5        30.10R
6HR MIN TEMP:  64; 6HR MAX TEMP:  70;

BOISE ID       PTCLDY  C1F1C2F2C3F3C4F4C5F5C6F6C7F7C8F8C9F9CaFaCbFbCcFcCd!



USA.gov is the U.S. government's official web portal to all federal, state and local government web resources and services.